カタログに戻る

FENGYUN 1C DEB

運用中SSO
NORAD 32343·DEBRIS·🇨🇳 China

打ち上げ May 10, 1999 から Taiyuan Satellite Launch Center

Loading…

次のパス (今後24時間)

TLE

最新Source: Space-Track

元期: Sep 14, 2026, 05:13 UTC

1 32343U 99025CYL 26257.21798632  .00000530  00000-0  23867-3 0  9997
2 32343  98.6337 242.1082 0151938  52.0167 309.4622 14.20257187686238

AllMySatでFENGYUN 1C DEBをリアルタイム追跡

Download on the App Store